DUCHIFAT-1

Last updated on Wed Aug 19 2026 00:03:14 GMT+0000 (Coordinated Universal Time)

1 40021U 14033M 26230.45015860 .00299119 00000+0 14002-2 0 9999 2 40021 98.0343 299.1433 0006316 208.7799 151.3121 15.82426987665536
UTC large
Height (km)
Speed (km/s)
/
Latitude / Longitude
Inclination (degrees)
Orbital Period (minutes)
Azimuth
Elevation
Range (km)
Doppler Factor

Next 0 passes for location: London (51.5072 / 0.1276)

No passes found over London.
DUCHIFAT-1